Home   Weather   Finland   Kuusamo   Past weeks
Flag for Finland

Past Weather in Kuusamo, Finland — Yesterday and Last 2 Weeks

Currently: 70 °F. Sunny. (Weather station: Kuusamo Airport, Finland). See more current weather

Past Weather in Kuusamo — Graph

°F

Kuusamo Temperature Yesterday

Maximum temperature yesterday: 77 °F (at 2:20 pm)
Minimum temperature yesterday: 54 °F (at 3:20 am)
Average temperature yesterday: 69 °F

High & Low Weather Summary for the Past Weeks

 TemperatureHumidityPressure
High77 °F (Jun 3, 4:20 pm)100% (Jun 2, 2:50 am)30.48 "Hg (Jun 2, 2:50 am)
Low30 °F (May 30, 12:20 am)24% (Jun 11, 6:20 pm)29.62 "Hg (Jun 12, 11:50 am)
Average59 °F52%30.13 "Hg
* Reported May 28 1:20 pm — Jun 12 1:20 pm, Kuusamo. Weather by CustomWeather, © 2021

Note: Actual official high and low records may vary slightly from our data, if they occured in-between our weather recording intervals... More about our weather records

Kuusamo Weather History for the Previous 24 Hours

Scroll right to see more
 ConditionsComfort  
Time TempWeatherWind HumidityBarometerVisibility
1:20 pm
Sat, Jun 12
72 °FPassing clouds.21 mph38%29.62 "HgN/A
12:50 pm72 °FSunny.24 mph36%29.62 "Hg10 mi
12:20 pm72 °FSunny.23 mph36%29.62 "Hg10 mi
11:50 am72 °FSunny.22 mph36%29.62 "Hg10 mi
11:20 am70 °FSunny.22 mph38%29.65 "Hg10 mi
10:50 am72 °FSunny.21 mph36%29.65 "Hg10 mi
10:20 am70 °FSunny.22 mph38%29.65 "Hg10 mi
9:50 am70 °FPassing clouds.16 mph40%29.65 "HgN/A
9:20 am68 °FPassing clouds.12 mph46%29.68 "HgN/A
8:50 am68 °FSunny.15 mph46%29.68 "Hg10 mi
8:20 am66 °FSunny.13 mph49%29.68 "Hg10 mi
7:50 am66 °FSunny.14 mph46%29.68 "Hg10 mi
7:20 am64 °FSunny.13 mph49%29.71 "Hg10 mi
6:50 am64 °FSunny.12 mph52%29.71 "Hg10 mi
6:20 am64 °FSunny.12 mph52%29.71 "Hg10 mi
5:50 am63 °FSunny.10 mph52%29.74 "Hg10 mi
5:20 am63 °FSunny.9 mph52%29.74 "Hg10 mi
4:50 am61 °FSunny.10 mph55%29.74 "Hg10 mi
4:20 am63 °FSunny.12 mph49%29.74 "Hg10 mi
3:50 am61 °FSunny.10 mph52%29.74 "Hg10 mi
3:20 am63 °FSunny.10 mph49%29.77 "Hg10 mi
2:50 am63 °FSunny.10 mph49%29.77 "Hg10 mi
2:20 am63 °FSunny.12 mph49%29.77 "Hg10 mi
1:50 am64 °FSunny.10 mph46%29.77 "Hg10 mi
1:20 am64 °FSunny.10 mph49%29.80 "Hg10 mi
12:50 am64 °FSunny.10 mph49%29.80 "Hg10 mi
12:20 am66 °FSunny.10 mph46%29.80 "Hg10 mi
11:50 pm
Fri, Jun 11
66 °FSunny.9 mph46%29.80 "Hg10 mi
11:20 pm68 °FSunny.9 mph43%29.80 "Hg10 mi
10:50 pm70 °FSunny.8 mph40%29.80 "Hg10 mi
10:20 pm72 °FSunny.9 mph38%29.80 "Hg10 mi
9:50 pm72 °FSunny.9 mph36%29.80 "Hg10 mi
9:20 pm73 °FSunny.13 mph33%29.83 "Hg10 mi
8:50 pm73 °FSunny.13 mph31%29.83 "Hg10 mi
8:20 pm75 °FSunny.14 mph27%29.83 "Hg10 mi
7:50 pm75 °FSunny.16 mph27%29.83 "Hg10 mi
7:20 pm75 °FPassing clouds.15 mph27%29.83 "HgN/A
6:50 pm77 °FPassing clouds.13 mph24%29.83 "HgN/A
6:20 pm77 °FSunny.15 mph24%29.86 "Hg10 mi
5:50 pm77 °FPassing clouds.14 mph26%29.86 "HgN/A
5:20 pm77 °FPassing clouds.15 mph26%29.86 "HgN/A
4:50 pm77 °FPassing clouds.13 mph26%29.86 "HgN/A
4:20 pm77 °FPassing clouds.15 mph26%29.89 "HgN/A
3:50 pm77 °FSunny.17 mph28%29.89 "Hg10 mi
3:20 pm77 °FPassing clouds.13 mph28%29.89 "HgN/A
2:50 pm77 °FSunny.15 mph28%29.89 "Hg10 mi
2:20 pm77 °FSunny.16 mph30%29.92 "Hg10 mi
Weather by CustomWeather, © 2021

See weather overview